Regional Weather Roundup
Issued by NWS

Home | Current Version | Previous Version | Graphics & Text | Print | Product List | Glossary On
Versions: 1 2 3 4 5 6 7 8 9 10 11 12 13 14 15 16 17 18 19 20 21 22 23 24 25 26 27 28 29 30 31 32 33 34 35 36 37 38 39 40 41 42 43 44 45 46 47 48 49 50
000
ASUS45 KTFX 222004
RWRMT
MONTANA HOURLY WEATHER ROUNDUP
NATIONAL WEATHER SERVICE GREAT FALLS MT
104 PM MST SAT NOV 22 2014

NOTE: "FAIR" INDICATES FEW OR NO CLOUDS BELOW 12000 FEET WITH NO
SIGNIFICANT WEATHER AND/OR OBSTRUCTIONS TO VISIBILITY.

* THESE STATIONS ARE NOT UNDER NWS QUALITY CONTROL. THEY DO NOT
   REPORT WEATHER SUCH AS PRECIPITATION OR FOG.

MTZ001>007-043-222100-
WEST OF THE DIVIDE
CITY           SKY/WX    TMP DP  RH WIND       PRES   REMARKS
KALISPELL      CLOUDY    39  30  70 SW16      29.51R WCI  30
MISSOULA       CLOUDY    45  28  51 W17       29.61R
BUTTE          CLOUDY    37  21  52 W17G28    29.54R WCI  27
MULLAN PASS    CLOUDY    25  21  85 W12G25    29.55S WCI  14
* ESSEX        N/A       37  26  64 SW3G19     N/A
* LINCOLN      N/A       41  27  58 SW11G31    N/A
* LOOKOUT PASS N/A       32  24  72 E5G14      N/A   WCI  27
* POLSON       N/A       38  26  62 SW3G15     N/A
* RONAN APT    PTCLDY    39  27  62 SW8        N/A   WCI  33
* SEELEY LAKE  N/A       35  25  67 NW10G23    N/A   WCI  27
* THOMP F APT  PTCLDY    31  30  96 SE2G12     N/A
* YAAK HILL    N/A       46  19  34 W8G18      N/A
$$

MTZ008-052>055-222100-
SOUTHWEST MONTANA
CITY           SKY/WX    TMP DP  RH WIND       PRES   REMARKS
BOZEMAN        CLOUDY    39  30  70 W15       29.48R WCI  31
DILLON         CLOUDY    36  21  54 SW18G31   29.56R WCI  26
* W YELLOWSTON CLOUDY    32  30  92 SW5G10     N/A   WCI  27
* ENNIS APT    PTCLDY    43  30  60 S15        N/A
* THREE FORKS  CLOUDY    41  41 100 SW14G24    N/A
* BOULDER HILL N/A       36  15  42 S14G36     N/A   WCI  27
* MONIDA PASS  N/A       30  30 100 SE19       N/A   WCI  18
* RAYNOLDS PAS N/A       34  14  44 SE11G19    N/A   WCI  26
* WHITEHALL    N/A       41  34  76 W9G30      N/A
* WISE RIVER   N/A       31  26  82 W12G22     N/A   WCI  22
$$

MTZ009>010-012-014-046-048-049-054-222100-
EAST SLOPES AND CENTRAL MONTANA
CITY           SKY/WX    TMP DP  RH WIND       PRES   REMARKS
CUT BANK       PTCLDY    43  19  38 W46G55    29.24R
GREAT FALLS    SUNNY     46  21  37 W32G41    29.33R
HELENA         PTCLDY    45  19  35 W35G47    29.42R
MALMSTROM AFB  SUNNY     46  21  37 SW39G48   29.33S
* DEARBORN     N/A       44  24  45 S16G30     N/A
* EAST GLACIER N/A       32  21  64 NW24G39    N/A   WCI  19
* MONARCH      N/A       39  16  39 W35G57     N/A   WCI  26
* PENDROY      N/A       36  28  73 W6         N/A   WCI  31
* SAINT MARY   N/A       35  23  62 SW13G30    N/A   WCI  26
* SWEET GRASS  N/A       41  21  45 W34G42     N/A
$$

MTZ011-013-016-021-035-040-045-047-050-051-222100-
NORTH CENTRAL MONTANA
CITY           SKY/WX    TMP DP  RH WIND       PRES   REMARKS
HAVRE          PTCLDY    50  27  41 W32G45    29.23R
LEWISTOWN      PTCLDY    52  25  35 W30G39    29.31S
* N BAR RANCH  SUNNY     50  16  26 W14G32    29.31F
* CHESTER      N/A       44  24  45 W23G40     N/A
* DENTON       N/A       51  23  33 W30G45     N/A
* JUDITH GAP   N/A       46  23  40 W29G40     N/A
* LOMA         N/A       50  21  32 SW22G34    N/A
$$

MTZ017>020-022>027-061-062-222100-
NORTHEAST MONTANA
CITY           SKY/WX    TMP DP  RH WIND       PRES   REMARKS
GLASGOW        PTCLDY    46  34  63 W8        29.21S
GLENDIVE       CLOUDY    39  34  82 S9        29.28F WCI  33
JORDAN         CLOUDY    46  36  68 SW21G28   29.25R
SIDNEY         CLOUDY    37  30  76 S9        29.27F WCI  30
WOLF POINT     CLOUDY    46  34  63 SW6       29.23F
* BEAVER HILL  N/A       38  35  89 SW15       N/A   WCI  29
* CIRCLE       N/A       42  36  79 SW7        N/A
* LINDSAY DVD  N/A       46  33  61 SW19G24    N/A
* NAVAJO       N/A       40  31  70 SW15G22    N/A   WCI  32
* SACO         N/A       49  34  56 SW19G24    N/A
$$

MTZ028>042-056>058-222100-
SOUTHCENTRAL AND SOUTHEAST MONTANA
CITY           SKY/WX    TMP DP  RH WIND       PRES   REMARKS
BAKER          LGT RAIN  43  37  79 W16G25    29.37F
BILLINGS       PTSUNNY   48  34  59 W15       29.40F
LIVINGSTON     LGT RAIN  41  39  93 W24G43    29.41F
MILES CITY     CLOUDY    43  37  79 S13       29.32F
* LAUREL APT   PTCLDY    48  32  54 W8         N/A
* LAME DEER    N/A       51  28  41 SW9G15     N/A
* REED POINT   N/A       48  35  61 W16G26     N/A
* ROSCOE HILL  N/A       41  27  58 NE10       N/A
$$

REGIONAL REPORTS...DAKOTAS
CITY           SKY/WX    TMP DP  RH WIND       PRES   REMARKS
WILLISTON      CLOUDY    43  30  60 S7        29.24F
DICKINSON      CLOUDY    41  28  60 SW18      29.30F
BEACH          N/A       37  37 100 SW15      29.35R VSB 2 1/2 WCI  28
CROSBY         N/A       39  32  76 S15       29.21F WCI  31
BISMARCK       PTSUNNY   45  28  51 S8        29.36F
GRAND FORKS    CLOUDY    39  30  70 SE8       29.48F WCI  33
FARGO          CLOUDY    45  30  56 SE9       29.49F
BUFFALO SD     CLOUDY    46  30  54 W12       29.32F
RAPID CITY     CLOUDY    55  27  34 W12       29.40F
$$

REGIONAL REPORTS...WYOMING/IDAHO/WASHINGTON
CITY           SKY/WX    TMP DP  RH WIND       PRES   REMARKS
GILLETTE       CLOUDY    43  28  56 SW26G39   29.39F
SHERIDAN       PTCLDY    61  25  25 NW7       29.37S
CODY           PTSUNNY   45  32  60 W6        29.44S
YELLOWSTONE LA CLOUDY    34  28  79 W10G20    29.54F WCI  26
SALMON         CLOUDY    41  28  60 N17G25    29.65R
MULLAN PASS    CLOUDY    25  21  85 W12G25    29.55S WCI  14
SAND POINT     PTCLDY    43  32  65 SW9G16    29.62S
SPOKANE        PTSUNNY   37  34  89 SW18      29.67S WCI  27
$$

REGIONAL REPORTS...ALBERTA
CITY           SKY/WX    TMP DP  RH WIND       PRES   REMARKS
EDMONTON       LGT SNOW  28  27  96 N14       29.22R VSB 1 1/4 WCI  17
$$

REGIONAL REPORTS...SASKATCHEWAN
CITY           SKY/WX    TMP DP  RH WIND       PRES   REMARKS
SWIFT CURRENT  PTSUNNY   45  32  60 W28G35    29.03F

$$



USA.gov is the U.S. government's official web portal to all federal, state and local government web resources and services.